Flag for Estonia Weather past 2 weeks in Tallinn, Estonia

Now
66 °F

Passing clouds.


Feels Like: 66 °F
Forecast: 58 / 72 °F
Wind: 7 mph from Northwest

Location: Tallinn

Current Time: Jul 5, 2015 at 11:18:08 AM

Latest Report: Jul 5, 2015 at 10:50 AM


Visibility: N/A

Pressure: 30.07 "Hg

Humidity: 73%

Dew point: 57 °F

Location of TallinnLocation

Historic Weather in Tallinn — Graph

°F

Tallinn temperature yesterday

Maximum temperature yesterday: 81 °F (at 12:50 PM)
Minimum temperature yesterday: 63 °F (at 2:20 AM)
Average temperature yesterday: 71 °F

Past Weeks' High & Low Weather Summary

 TemperatureHumidityPressure
High81 °F (Jul 4, 12:50 PM)100% (Jun 21, 1:50 AM)30.36 "Hg (Jun 21, 1:50 AM)
Low45 °F (Jun 21, 2:50 AM)36% (Jul 2, 12:20 PM)29.65 "Hg (Jun 24, 8:20 AM)
Average60 °F77%29.97 "Hg
* Reported Jun 20 10:20 AM — Jul 5 10:20 AM, Tallinn, Weather by CustomWeather, © 2015

Note: Actual official high and low records may vary slightly from our data, if they occured in-between our weather recording intervals... More about our weather records

Advertising

Tallinn weather history for previous 24 hours

 ConditionsComfort  
Time TempWeatherWind HumidityBarometerVisibility
10:20 AM
Sun, Jul 5
66 °FSunny.6 mph68%30.07 "Hg10 mi
9:50 AM66 °FSunny.6 mph68%30.07 "Hg10 mi
9:20 AM64 °FPassing clouds.7 mph73%30.07 "HgN/A
8:50 AM64 °FSunny.8 mph73%30.07 "Hg10 mi
8:20 AM63 °FSunny.8 mph77%30.07 "Hg10 mi
7:50 AM63 °FPassing clouds.7 mph77%30.07 "HgN/A
7:20 AM61 °FPassing clouds.6 mph83%30.07 "HgN/A
6:20 AM61 °FSunny.12 mph83%30.07 "Hg10 mi
5:50 AM61 °FSunny.10 mph83%30.04 "Hg10 mi
5:20 AM61 °FSunny.9 mph83%30.04 "Hg10 mi
4:50 AM61 °FClear.9 mph83%30.04 "Hg10 mi
4:20 AM61 °FClear.10 mph77%30.04 "Hg10 mi
3:50 AM61 °FClear.9 mph77%30.04 "Hg10 mi
3:20 AM61 °FClear.12 mph77%30.04 "Hg10 mi
2:50 AM63 °FClear.10 mph73%30.01 "Hg10 mi
2:20 AM63 °FClear.10 mph73%30.01 "Hg10 mi
1:50 AM63 °FPassing clouds.14 mph73%30.01 "HgN/A
1:20 AM64 °FClear.14 mph68%30.01 "Hg10 mi
12:50 AM64 °FClear.12 mph68%30.01 "Hg10 mi
12:20 AM66 °FClear.10 mph64%30.01 "Hg10 mi
11:50 PM
Sat, Jul 4
64 °FClear.10 mph73%30.01 "Hg10 mi
11:20 PM64 °FSunny.9 mph78%30.01 "Hg10 mi
10:50 PM66 °FSunny.13 mph78%30.01 "Hg10 mi
10:20 PM68 °FSunny.10 mph73%30.01 "Hg10 mi
9:50 PM68 °FSunny.13 mph73%30.01 "Hg10 mi
9:20 PM70 °FSunny.14 mph73%30.01 "Hg10 mi
8:50 PM70 °FSunny.14 mph69%30.01 "Hg10 mi
8:20 PM72 °FSunny.18 mph65%30.01 "Hg10 mi
7:50 PM73 °FSunny.16 mph65%30.01 "Hg10 mi
7:20 PM75 °FSunny.13 mph61%30.01 "Hg10 mi
6:50 PM75 °FSunny.13 mph61%30.01 "Hg10 mi
6:20 PM73 °FSunny.17 mph65%30.04 "Hg10 mi
5:50 PM75 °FSunny.18 mph65%30.04 "Hg10 mi
5:20 PM75 °FPassing clouds.18 mph61%30.04 "HgN/A
4:50 PM77 °FPassing clouds.20 mph61%30.04 "HgN/A
4:20 PM79 °FPassing clouds.20 mph58%30.04 "HgN/A
3:50 PM79 °FPassing clouds.13 mph58%30.04 "HgN/A
3:20 PM77 °FPassing clouds.9 mph57%30.04 "HgN/A
2:50 PM79 °FPassing clouds.15 mph54%30.04 "HgN/A
2:20 PM81 °FPassing clouds.17 mph51%30.04 "HgN/A
1:50 PM81 °FSunny.16 mph48%30.04 "Hg10 mi
1:20 PM79 °FPassing clouds.14 mph54%30.07 "HgN/A
12:50 PM81 °FSunny.16 mph51%30.07 "Hg10 mi
12:20 PM79 °FSunny.15 mph58%30.07 "Hg10 mi
11:50 AM79 °FSunny.14 mph54%30.07 "Hg10 mi
11:20 AM77 °FSunny.15 mph57%30.07 "Hg10 mi
Weather by CustomWeather, © 2015

See weather overviewHow to use our weather pages